Tallahassee, FL

8:14 PM EDT on September 25, 2016 (GMT -0400)
Tallahassee Regional

Weather History for KTLH - October, 2013

Change the Weather History Date:

Tuesday, October 22, 2013

  Actual Average Record
Temperature  
Mean Temperature 69 °F 67 °F  
Max Temperature 72 °F 80 °F 90 °F (1993)
Min Temperature 66 °F 55 °F 34 °F (1989)
Degree Days  
Heating Degree Days 0    
Month to date heating degree days 0  
Since 1 July heating degree days 0  
Cooling Degree Days 4    
Month to date cooling degree days 221  
Year to date cooling degree days 2726  
Growing Degree Days 20 (Base 50)    
Moisture  
Dew Point 67 °F    
Average Humidity 89    
Maximum Humidity 93    
Minimum Humidity 84    
Precipitation  
Precipitation 0.15 in 0.10 in 1.25 in (1911)
Month to date precipitation 1.03 2.37  
Year to date precipitation 57.49 50.97  
Sea Level Pressure  
Sea Level Pressure 29.91 in    
Wind  
Wind Speed 3 mph (NNE)    
Max Wind Speed 9 mph    
Max Gust Speed 12 mph    
Visibility 8 miles    
Events Rain    
T = Trace of Precipitation, MM = Missing Value Source: NWS Daily Summary

Daily Weather History Graph

Daily Weather History Graph

Search for Another Location

Airport or City:

Trip Planner

Search our weather history database for the weather conditions in past years. The results will help you decide how hot, cold, wet, or windy it might be!

Date:

Astronomy

Oct. 22, 2013 Rise Set
Actual Time 7:44 AM EDT 6:58 PM EDT
Civil Twilight 7:20 AM EDT 7:23 PM EDT
Nautical Twilight 6:52 AM EDT 7:51 PM EDT
Astronomical Twilight 6:24 AM EDT 8:19 PM EDT
Moon 9:48 PM EDT (10/22) 11:01 AM EDT (10/22)
Length of Visible Light 12h 02m
Length of Day
11h 14m
Waning Gibbous, 87% of the Moon is Illuminated
Oct 22
Waning Gibbous
Oct 26
Last Quarter
Nov 3
New
Nov 10
First Quarter
Nov 17
Full

Hourly Weather History & Observations

Time (EDT) Temp. Dew Point Humidity Pressure Visibility Wind Dir Wind Speed Gust Speed Precip Events Conditions
12:53 AM 71.1 °F 66.0 °F 84% 30.00 in 10.0 mi Calm Calm - N/A   Clear
1:53 AM 70.0 °F 66.0 °F 87% 29.98 in 10.0 mi ENE 3.5 mph - N/A   Clear
2:53 AM 70.0 °F 66.0 °F 87% 29.97 in 10.0 mi East 5.8 mph - N/A   Clear
3:53 AM 70.0 °F 66.0 °F 87% 29.96 in 10.0 mi Calm Calm - N/A   Clear
4:20 AM 69.8 °F 66.2 °F 88% 29.95 in 10.0 mi Calm Calm - N/A   Partly Cloudy
4:41 AM 69.8 °F 66.2 °F 88% 29.94 in 10.0 mi NNE 3.5 mph - N/A   Mostly Cloudy
4:53 AM 70.0 °F 66.0 °F 87% 29.94 in 10.0 mi Calm Calm - N/A   Overcast
5:53 AM 70.0 °F 66.0 °F 87% 29.96 in 10.0 mi NNE 4.6 mph - N/A   Overcast
6:53 AM 70.0 °F 66.0 °F 87% 29.96 in 9.0 mi Calm Calm - N/A   Overcast
7:53 AM 70.0 °F 66.9 °F 90% 29.94 in 7.0 mi East 5.8 mph - 0.00 in Rain Light Rain
8:48 AM 69.8 °F 66.2 °F 88% 29.94 in 5.0 mi ENE 3.5 mph - 0.00 in Rain Light Rain
8:53 AM 70.0 °F 66.9 °F 90% 29.94 in 5.0 mi East 3.5 mph - 0.00 in Rain Light Rain
9:53 AM 71.1 °F 68.0 °F 90% 29.95 in 5.0 mi NNE 3.5 mph - 0.00 in   Overcast
10:53 AM 72.0 °F 68.0 °F 87% 29.95 in 6.0 mi North 4.6 mph - 0.01 in   Overcast
11:53 AM 72.0 °F 69.1 °F 91% 29.94 in 6.0 mi North 4.6 mph - 0.01 in Rain Light Rain
12:53 PM 71.1 °F 68.0 °F 90% 29.93 in 6.0 mi North 6.9 mph - 0.01 in Rain Light Rain
1:05 PM 71.6 °F 68.0 °F 88% 29.92 in 7.0 mi North 5.8 mph - 0.00 in Rain Light Rain
1:53 PM 72.0 °F 68.0 °F 87% 29.91 in 6.0 mi North 3.5 mph - 0.03 in Rain Light Rain
2:01 PM 71.6 °F 68.0 °F 88% 29.91 in 6.0 mi North 4.6 mph - 0.01 in Rain Light Rain
2:53 PM 71.1 °F 66.9 °F 87% 29.88 in 9.0 mi NNE 3.5 mph - 0.04 in Rain Light Rain
3:53 PM 71.1 °F 68.0 °F 90% 29.87 in 8.0 mi North 5.8 mph - 0.02 in Rain Light Rain
4:05 PM 71.6 °F 68.0 °F 88% 29.87 in 8.0 mi North 4.6 mph - 0.00 in Rain Light Rain
4:19 PM 71.6 °F 68.0 °F 88% 29.86 in 8.0 mi NNE 3.5 mph - 0.01 in Rain Light Rain
4:41 PM 71.6 °F 68.0 °F 88% 29.87 in 10.0 mi North 3.5 mph - 0.01 in   Overcast
4:53 PM 72.0 °F 68.0 °F 87% 29.87 in 10.0 mi Calm Calm - 0.01 in   Overcast
5:03 PM 71.6 °F 68.0 °F 88% 29.87 in 10.0 mi Calm Calm - N/A   Overcast
5:17 PM 71.6 °F 68.0 °F 88% 29.87 in 10.0 mi NW 4.6 mph - 0.00 in Rain Light Rain
5:53 PM 71.1 °F 68.0 °F 90% 29.86 in 7.0 mi Calm Calm - 0.02 in Rain Light Rain
6:53 PM 71.1 °F 68.0 °F 90% 29.87 in 10.0 mi NNW 4.6 mph - 0.00 in   Overcast
7:53 PM 71.1 °F 66.9 °F 87% 29.86 in 10.0 mi Calm Calm - N/A   Overcast
8:49 PM 69.8 °F 66.2 °F 88% 29.88 in 10.0 mi Calm Calm - N/A   Overcast
8:53 PM 70.0 °F 66.9 °F 90% 29.88 in 10.0 mi NNW 3.5 mph - N/A   Overcast
9:53 PM 70.0 °F 66.0 °F 87% 29.88 in 10.0 mi Calm Calm - N/A   Mostly Cloudy
10:53 PM 69.1 °F 64.9 °F 87% 29.89 in 10.0 mi Calm Calm - N/A   Scattered Clouds
11:53 PM 66.0 °F 64.0 °F 93% 29.89 in 8.0 mi Calm Calm - N/A   Clear